Hourly Data Report for December 19, 2021

TORONTO CITY
ONTARIO
Current Station Operator: ECCC - MSC

43°40'00.000" N
79°24'00.000" W
112.50 m
6158355
71508
XTO

Download Data

Hourly Data (December 2021)
Hourly Data Report for December 19, 2021
TIME
LST
Temp Definition
°C
Dew Point Definition
°C
Rel Hum Definition
%
Precip. Amount Definition
mm

Wind Dir Definition
10's deg

Wind Spd Definition
km/h
Visibility Definition
km
Stn Press Definition
kPa
Hmdx Definition


Wind Chill Definition


Weather Definition


00:00 -2.6 -6.0 77 0.0       100.45     LegendNANA
01:00 -2.9 -6.1 78 0.0       100.50     LegendNANA
02:00 -2.8 -6.0 79 0.0       100.58     LegendNANA
03:00 -2.7 -5.8 79 0.0       100.71     LegendNANA
04:00 -2.7 -6.1 78 0.0       100.76     LegendNANA
05:00 -3.0 -6.5 77 0.0       100.84     LegendNANA
06:00 -3.4 -7.0 76 0.0       100.92     LegendNANA
07:00 -3.6 -7.2 76 0.0       101.02     LegendNANA
08:00 -3.6 -7.2 76 0.0       101.09     LegendNANA
09:00 -3.6 -7.4 75 0.0       101.19     LegendNANA
10:00 -3.9 -8.1 72 0.0       101.23     LegendNANA
11:00 -3.6 -8.9 67 0.0       101.29     LegendNANA
12:00 -3.4 -9.2 64 0.0       101.26     LegendNANA
13:00 -3.3 -10.2 59 0.0       101.25     LegendNANA
14:00 -3.1 -10.2 58 0.0       101.23     LegendNANA
15:00 -3.1 -10.4 57 0.0       101.21     LegendNANA
16:00 -3.3 -10.3 58 0.0       101.29     LegendNANA
17:00 -3.7 -9.7 63 0.0       101.35     LegendNANA
18:00 -4.4 -9.4 68 0.0       101.37     LegendNANA
19:00 -4.9 -9.5 70 0.0       101.35     LegendNANA
20:00 -5.1 -9.5 71 0.0       101.38     LegendNANA
21:00 -5.0 -9.1 73 0.0       101.38     LegendNANA
22:00 -4.9 -9.3 71 0.0       101.29     LegendNANA
23:00 -5.0 -8.9 74 0.0       101.29     LegendNANA

Notes on Data Quality.

Legend

  • E = Estimated
  • M = Missing
  • NA = Not Available*
  • [empty] = Indicates an unobserved value
Date modified: